User: anonymous   Login
Location: Unspecified
(0.0000°N, 0.0000°E)
Time: 06:49:42
(UTC+00:00)
Language:

YAOGAN-43 03B - Orbit

View from above orbital plane
View from above orbital plane
View from above satellite
View from above satellite

Ground track
Ground track

The orbit is defined by the following mean orbital elements,

1 61618U          26145.63179777 +.00000000 +00000-0 +33885-3 0 00000
2 61618  34.9888 339.4890 0005300 161.6868 198.4038 15.22983204    03
Epoch (UTC): 25 May 2026 15:09:47
Eccentricity: 0.0005300
inclination: 34.9888°
perigee height: 493 km
apogee height: 500 km
right ascension of ascending node: 339.4890°
argument of perigee: 161.6868°
revolutions per day: 15.22983204
mean anomaly at epoch: 198.4038°

The dashed part of the orbit path shows where the satellite is in the earth's shadow,  

DLR